sat.trackr.live / text

‹ back to catalog

STARLINK-37059

NORAD 68088 · 2026-042V

PAYLOAD ACTIVE UNKNOWN

§ Identity

Operator
Country
US
Launch date
2026-03-04
Launch site
AFETR
Launch vehicle
Mass (kg)
RCS (m²)

Purposes: comms

External: N2YO · Heavens-Above · Gunter

§ Orbital elements

Epoch: 2026-05-25T02:50:14.555328Z

Period
93.85 min
Inclination
53.1581°
Eccentricity
0.0001195
Mean motion
15.34404397 rev/d
Perigee alt
461.9 km
Apogee alt
463.5 km
Semi-major
6,840.8 km
B*
6.1868e-4
RAAN
183.2369°
Arg perigee
82.5176°
Mean anomaly
277.5962°
Rev number
1,401

§ Raw data

STARLINK-370591 68088U 26042V   26145.11822402  .00020587  00000+0  61868-3 0  99952 68088  53.1581 183.2369 0001195  82.5176 277.5962 15.34404397 14016

JSON: /api/v1/satellites/68088 · /tle

For live sub-satellite position, see the globe view (requires WebGL).

§ Visibility from observer

Set your observer location to see the next 7 days of passes ≥ 10°. The values pass through the URL so the page stays shareable.

No JS? Fill the form by hand. The geolocation button needs JavaScript.